Regional Weather Roundup
Issued by NWS Charleston, WV

Home | Current Version | Previous Version | Graphics & Text | Print | Product List | Glossary On
Versions: 1 2 3 4 5 6 7 8 9 10 11 12 13 14 15 16 17 18 19 20 21 22 23 24 25 26 27 28 29 30 31 32 33 34 35 36 37 38 39 40 41 42 43 44 45 46 47 48 49 50
000
ASUS41 KRLX 300110
RWRRLX
West Virginia Regional Weather Roundup
National Weather Service Charleston WV
900 PM EDT THU SEP 29 2016

Note: "fair" indicates few or no clouds below 12,000 feet with no
significant weather and/or obstructions to visibility.

WVZ003-300200-
Northern Panhandle of West Virginia

CITY           SKY/WX    TMP DP  RH WIND       PRES   REMARKS
WHEELING       RAIN      63  59  87 E6        30.12R
$$

WVZ009-300200-
Northwest West Virginia

CITY           SKY/WX    TMP DP  RH WIND       PRES   REMARKS
PARKERSBURG    PTCLDY    60  58  92 W5        30.09R
$$

WVZ006-300200-
Western West Virginia

CITY           SKY/WX    TMP DP  RH WIND       PRES   REMARKS
HUNTINGTON     CLOUDY    58  56  93 CALM      30.05R
$$

WVZ015-300200-
West Central West Virginia

CITY           SKY/WX    TMP DP  RH WIND       PRES   REMARKS
CHARLESTON     FOG       59  58  96 CALM      30.05R VSB 1/4
$$

WVZ022-031-300200-
North Central West Virginia

CITY           SKY/WX    TMP DP  RH WIND       PRES   REMARKS
CLARKSBURG     CLOUDY    60  59  96 N8        30.04F FOG
MORGANTOWN     LGT RAIN  64  59  83 E8        30.09R
$$

WVZ025-035-042-045-300200-
Southern West Virginia

CITY           SKY/WX    TMP DP  RH WIND       PRES   REMARKS
BECKLEY        RAIN      57  56  96 CALM      30.08R FOG
LOGAN          TSTM      57  57 100 CALM      30.06F VSB 1
BLUEFIELD      LGT RAIN  56  55  97 CALM      30.11R
LEWISBURG      CLOUDY    57  57  98 NE3       30.07S
$$

WVZ047-300200-
Northern Mountains of West Virginia

CITY           SKY/WX    TMP DP  RH WIND       PRES   REMARKS
ELKINS         CLOUDY    61  58  90 CALM      30.10S
$$

WVZ052-300200-
Eastern Panhandle of West Virginia

CITY           SKY/WX    TMP DP  RH WIND       PRES   REMARKS
MARTINSBURG    CLOUDY    62  60  93 NE8       30.18R
PETERSBURG     LGT RAIN  68  64  87 NE5       30.10R
$$




USA.gov is the U.S. government's official web portal to all federal, state and local government web resources and services.